Details for Thomas Cook Airlines at EGFF




Go Back


Latest METAR
Local Time

EGFF 150450Z AUTO 27014KT 9999 OVC011 18/16 Q1018
15/08/2018, 06:19:47

Description
Results
Thomas Cook Airlines Logo
Number of Pilots based at EGFF
1 Pilots Based here
Number of Thomas Cook Airlines Flights Departed from EGFF
0 Flights Departed
Number of Thomas Cook Airlines Flights Arrived at EGFF
0 Flights Arrived
Number of Thomas Cook Airlines Schedules Departing from EGFF
0 Schedules
Number of Thomas Cook Airlines Schedules Arriving at EGFF
0 Schedules
Number of Thomas Cook Airlines Schedules Departing from EGFF availible today
0 Schedules Today
Number of Thomas Cook Airlines Schedules Arriving at EGFF availible today
0 Schedules Today
Average Landing Rate at EGFF
-220 fpm
Thomas Cook Airlines Average Landing Rate at EGFF
0 fpm
Total Fuel Purchased at EGFF by Thomas Cook Airlines
0.00 kgs / 0.00 lbs

Pilots Based at EGFF


Pilot ID
Pilot Name
Pilot Rank
No. of Flights
No. of Flying Hours
Chris Williams
47
51.09
Content